When you browse on this site, cookies collect data to enhance your experience and personalize the content and advertising you see.
Visit our Privacy Policy to learn more. By continuing to use the site, you agree to this use of cookies and data.
  • In Spain
  • List of Countries
  • For 7 days
  • Water Temperature
  • Satellite Maps
  • Weather Map
  • Weather Widgets
  • user-avatar
    Login

    Hourly Weather Novyy Berezay

    Today, 19 February, Tuesday

    Time Temperature Precipitation Wind Pressure Humidity
    00:00 -9°C° 0 mm 3 mps 747 mmHg 85%
    01:00 -9°C° 0 mm 4 mps 746 mmHg 82%
    02:00 -8°C° 0 mm 4 mps 745 mmHg 78%
    03:00 -7°C° 0 mm 5 mps 744 mmHg 76%
    04:00 -7°C° 0 mm 5 mps 743 mmHg 75%
    05:00 -7°C° 0 mm 5 mps 743 mmHg 73%
    06:00 -6°C° 0 mm 5 mps 742 mmHg 76%
    07:00 -6°C° 0 mm 5 mps 742 mmHg 79%
    08:00 -6°C° 0 mm 5 mps 741 mmHg 81%
    09:00 -5°C° 0 mm 5 mps 741 mmHg 83%
    10:00 -4°C° 0 mm 5 mps 741 mmHg 84%
    11:00 -2°C° 0 mm 5 mps 740 mmHg 86%
    12:00 -1°C° 0 mm 4 mps 740 mmHg 87%
    13:00 -1°C° 0 mm 4 mps 739 mmHg 88%
    14:00 -1°C° 0 mm 4 mps 739 mmHg 90%
    15:00 -1°C° 0 mm 4 mps 738 mmHg 90%
    16:00 0°C° 0 mm 3 mps 738 mmHg 90%
    17:00 0°C° 0 mm 3 mps 738 mmHg 90%
    18:00 -1°C° 0 mm 4 mps 737 mmHg 90%
    19:00 -1°C° 0 mm 4 mps 736 mmHg 89%
    20:00 -1°C° 0 mm 4 mps 735 mmHg 89%
    21:00 -1°C° 0 mm 4 mps 735 mmHg 89%
    22:00 -1°C° 0 mm 4 mps 734 mmHg 89%
    23:00 -1°C° 0 mm 5 mps 733 mmHg 90%

    Tomorrow, 20 February, Wednesday

    Time Temperature Precipitation Wind Pressure Humidity
    00:00 -1°C° 0.1 mm 4 mps 732 mmHg 90%
    01:00 -1°C° 0.1 mm 4 mps 732 mmHg 90%
    02:00 -1°C° 0.1 mm 4 mps 731 mmHg 91%
    03:00 -1°C° 0.2 mm 4 mps 731 mmHg 92%
    04:00 -1°C° 0.2 mm 4 mps 730 mmHg 92%
    05:00 0°C° 0.2 mm 4 mps 730 mmHg 93%
    06:00 -1°C° 0.1 mm 4 mps 730 mmHg 93%
    07:00 -1°C° 0.1 mm 4 mps 730 mmHg 94%
    08:00 -1°C° 0.1 mm 4 mps 730 mmHg 95%
    09:00 -1°C° 0.1 mm 4 mps 730 mmHg 94%
    10:00 0°C° 0.1 mm 4 mps 730 mmHg 94%
    11:00 0°C° 0.1 mm 4 mps 730 mmHg 93%
    12:00 0°C° 0.2 mm 4 mps 730 mmHg 93%
    13:00 0°C° 0.2 mm 4 mps 729 mmHg 94%
    14:00 0°C° 0.2 mm 4 mps 729 mmHg 94%
    15:00 +1°C° 0.1 mm 3 mps 729 mmHg 93%
    16:00 +1°C° 0.1 mm 3 mps 729 mmHg 92%
    17:00 0°C° 0.1 mm 3 mps 728 mmHg 91%
    18:00 0°C° 0.3 mm 3 mps 728 mmHg 92%
    19:00 0°C° 0.3 mm 3 mps 728 mmHg 93%
    20:00 0°C° 0.3 mm 3 mps 728 mmHg 93%
    21:00 0°C° 0.1 mm 3 mps 728 mmHg 93%
    22:00 0°C° 0.1 mm 3 mps 728 mmHg 94%
    23:00 0°C° 0.1 mm 3 mps 728 mmHg 94%

    Day after tomorrow, 21 February, Thursday

    Time Temperature Precipitation Wind Pressure Humidity
    00:00 -1°C° 0.3 mm 3 mps 729 mmHg 93%
    01:00 -2°C° 0.3 mm 4 mps 729 mmHg 93%
    02:00 -2°C° 0.3 mm 5 mps 730 mmHg 92%
    03:00 -4°C° 0.2 mm 5 mps 730 mmHg 91%
    04:00 -6°C° 0.2 mm 5 mps 730 mmHg 89%
    05:00 -8°C° 0.2 mm 6 mps 731 mmHg 88%
    06:00 -7°C° 0.1 mm 5 mps 731 mmHg 87%
    07:00 -7°C° 0.1 mm 5 mps 732 mmHg 87%
    08:00 -8°C° 0.1 mm 5 mps 733 mmHg 86%
    09:00 -9°C° 0.2 mm 6 mps 734 mmHg 86%
    10:00 -9°C° 0.2 mm 6 mps 735 mmHg 85%
    11:00 -9°C° 0.2 mm 7 mps 736 mmHg 85%
    12:00 -10°C° 0.1 mm 6 mps 737 mmHg 83%
    13:00 -10°C° 0.1 mm 6 mps 738 mmHg 82%
    14:00 -10°C° 0.1 mm 6 mps 739 mmHg 81%
    15:00 -11°C° 0.1 mm 6 mps 740 mmHg 80%
    16:00 -12°C° 0.1 mm 6 mps 741 mmHg 80%
    17:00 -12°C° 0.1 mm 6 mps 742 mmHg 79%
    18:00 -14°C° 0.1 mm 6 mps 743 mmHg 79%
    19:00 -13°C° 0.1 mm 5 mps 744 mmHg 79%
    20:00 -14°C° 0.1 mm 5 mps 745 mmHg 79%
    21:00 -14°C° 0 mm 5 mps 746 mmHg 80%
    22:00 -14°C° 0 mm 5 mps 746 mmHg 80%
    23:00 -14°C° 0 mm 5 mps 747 mmHg 81%

    22 February, Friday

    Time Temperature Precipitation Wind Pressure Humidity
    00:00 -15°C° 0 mm 5 mps 747 mmHg 82%
    01:00 -15°C° 0 mm 5 mps 748 mmHg 83%
    02:00 -15°C° 0 mm 5 mps 749 mmHg 84%
    03:00 -17°C° 0 mm 5 mps 749 mmHg 84%
    04:00 -16°C° 0 mm 4 mps 750 mmHg 84%
    05:00 -17°C° 0 mm 4 mps 750 mmHg 83%
    06:00 -16°C° 0 mm 4 mps 751 mmHg 83%
    07:00 -16°C° 0 mm 4 mps 751 mmHg 82%
    08:00 -16°C° 0 mm 4 mps 751 mmHg 81%
    09:00 -15°C° 0 mm 4 mps 751 mmHg 81%
    10:00 -12°C° 0 mm 4 mps 752 mmHg 81%
    11:00 -12°C° 0 mm 5 mps 752 mmHg 80%
    12:00 -12°C° 0 mm 5 mps 752 mmHg 79%
    13:00 -12°C° 0 mm 5 mps 752 mmHg 78%
    14:00 -12°C° 0 mm 5 mps 752 mmHg 77%
    15:00 -13°C° 0 mm 5 mps 753 mmHg 78%
    16:00 -13°C° 0 mm 5 mps 753 mmHg 79%
    17:00 -14°C° 0 mm 5 mps 754 mmHg 80%
    18:00 -15°C° 0 mm 5 mps 754 mmHg 81%
    19:00 -15°C° 0 mm 5 mps 755 mmHg 82%
    20:00 -16°C° 0 mm 4 mps 755 mmHg 82%
    21:00 -16°C° 0 mm 4 mps 756 mmHg 83%
    22:00 -16°C° 0 mm 4 mps 756 mmHg 84%
    23:00 -16°C° 0 mm 4 mps 756 mmHg 85%

    23 February, Saturday

    Time Temperature Precipitation Wind Pressure Humidity
    00:00 -16°C° 0 mm 3 mps 757 mmHg 86%
    01:00 -16°C° 0 mm 3 mps 757 mmHg 88%
    02:00 -16°C° 0 mm 3 mps 757 mmHg 90%
    03:00 -17°C° 0 mm 3 mps 757 mmHg 91%
    04:00 -17°C° 0 mm 3 mps 757 mmHg 93%
    05:00 -18°C° 0 mm 3 mps 757 mmHg 94%
    06:00 -17°C° 0 mm 2 mps 757 mmHg 94%
    07:00 -17°C° 0 mm 2 mps 758 mmHg 94%
    08:00 -17°C° 0 mm 2 mps 758 mmHg 93%
    09:00 -15°C° 0 mm 2 mps 758 mmHg 89%
    10:00 -14°C° 0 mm 2 mps 758 mmHg 86%
    11:00 -12°C° 0 mm 2 mps 758 mmHg 82%
    12:00 -10°C° 0 mm 2 mps 758 mmHg 80%
    13:00 -9°C° 0 mm 2 mps 758 mmHg 78%
    14:00 -8°C° 0 mm 2 mps 758 mmHg 76%
    15:00 -8°C° 0 mm 1 mps 758 mmHg 80%
    16:00 -9°C° 0 mm 1 mps 757 mmHg 84%
    17:00 -9°C° 0 mm 1 mps 757 mmHg 88%
    18:00 -9°C° 0 mm 1 mps 757 mmHg 88%
    19:00 -10°C° 0 mm 1 mps 758 mmHg 88%
    20:00 -10°C° 0 mm 1 mps 758 mmHg 88%
    21:00 -10°C° 0 mm 1 mps 758 mmHg 87%
    22:00 -10°C° 0 mm 1 mps 758 mmHg 86%
    23:00 -9°C° 0 mm 1 mps 758 mmHg 85%

    24 February, Sunday

    Time Temperature Precipitation Wind Pressure Humidity
    00:00 -10°C° 0 mm 2 mps 758 mmHg 87%
    01:00 -10°C° 0 mm 2 mps 758 mmHg 88%
    02:00 -10°C° 0 mm 2 mps 758 mmHg 89%
    03:00 -10°C° 0 mm 2 mps 758 mmHg 91%
    04:00 -10°C° 0 mm 2 mps 758 mmHg 93%
    05:00 -10°C° 0 mm 2 mps 757 mmHg 96%
    06:00 -10°C° 0 mm 2 mps 757 mmHg 95%
    07:00 -9°C° 0 mm 2 mps 758 mmHg 95%
    08:00 -8°C° 0 mm 2 mps 758 mmHg 95%
    09:00 -7°C° 0 mm 2 mps 758 mmHg 94%
    10:00 -6°C° 0 mm 2 mps 757 mmHg 92%
    11:00 -5°C° 0 mm 3 mps 757 mmHg 91%
    12:00 -5°C° 0 mm 3 mps 757 mmHg 91%
    13:00 -4°C° 0 mm 3 mps 756 mmHg 91%
    14:00 -2°C° 0 mm 3 mps 756 mmHg 90%
    15:00 -4°C° 0 mm 3 mps 756 mmHg 91%
    16:00 -4°C° 0 mm 3 mps 755 mmHg 92%
    17:00 -4°C° 0 mm 3 mps 755 mmHg 92%
    18:00 -4°C° 0.1 mm 3 mps 754 mmHg 93%
    19:00 -4°C° 0.1 mm 4 mps 754 mmHg 93%
    20:00 -3°C° 0.1 mm 4 mps 754 mmHg 93%
    21:00 -3°C° 0.2 mm 4 mps 753 mmHg 93%
    22:00 -3°C° 0.2 mm 4 mps 752 mmHg 93%
    23:00 -2°C° 0.2 mm 4 mps 752 mmHg 93%
    Show more